Regional Weather Roundup
Issued by NWS

Home | Current Version | Previous Version | Text Only | Print | Product List | Glossary On
Versions: 1 2 3 4 5 6 7 8 9 10 11 12 13 14 15 16 17 18 19 20 21 22 23 24 25 26 27 28 29 30 31 32 33 34 35 36 37 38 39 40 41 42 43 44 45 46 47
000
ASUS43 KMPX 140010
RWRMN
WEATHER ROUNDUP FOR MINNESOTA
NATIONAL WEATHER SERVICE TWIN CITIES/CHANHASSEN MN
700 PM CDT THU AUG 13 2020


NOTE: "FAIR" INDICATES FEW OR NO CLOUDS BELOW 12,000 FEET WITH NO
SIGNIFICANT WEATHER AND/OR OBSTRUCTIONS TO VISIBILITY. N/A MEANS
CURRENT SKY AND/OR WEATHER CONDITIONS ARE NOT AVAILABLE.

MNZ060>063-068>070-140100-
   Twin Cities Metro

CITY           SKY/WX    TMP DP  RH WIND       PRES   REMARKS
TWIN CITIES    MOSUNNY   84  73  69 S12G21    29.94F HX  90
6HR MIN TEMP:  84; 6HR MAX TEMP:  88;

ST PAUL        MOSUNNY   85  72  65 S16       29.95S HX  91
CRYSTAL        SUNNY     86  70  58 S12G22    29.92F HX  90
BLAINE         MOSUNNY   86  72  62 S15G23    29.93F HX  92
LAKEVILLE      SUNNY     82  66  57 SE7       29.96F
EDEN PRAIRIE   SUNNY     85  71  63 S13       29.93F HX  90
6HR MIN TEMP:  83; 6HR MAX TEMP:  88;

SOUTH ST PAUL  SUNNY     85  71  61 S10       29.95S HX  90
LAKE ELMO      FAIR      82  72  69 S8        29.97S
$$
MNZ001>005-007-008-013>017-022>024-027-028-140100-
   Northwest Minnesota

CITY           SKY/WX    TMP DP  RH WIND       PRES   REMARKS
BEMIDJI        CLOUDY    76  73  87 SE12      29.90R
HALLOCK        MOSUNNY   79  73  83 E6        29.80F
ROSEAU         PTSUNNY   81 N/A N/A SE6       29.85R
WARROAD        PTSUNNY   77  73  88 SE5       29.86S
THIEF RVR FALL CLOUDY    77  72  84 E8        29.82F
CROOKSTON      CLOUDY    81  73  78 E8        29.79S
FOSSTON        TSTM      79  70  73 SE7       29.85R
DETROIT LAKES    N/A     82  72  69 S12G17    29.88R
MOORHEAD       PTSUNNY   91  70  49 S13G21    29.80R THUNDER HX  97
PARK RAPIDS    MOSUNNY   82  72  71 S8        29.89S
MAHNOMEN         N/A     81  74  79 S7        29.84S THUNDER
$$
MNZ006-009>011-018-025>026-140100-
   North Central Minnesota

CITY           SKY/WX    TMP DP  RH WIND       PRES   REMARKS
BAUDETTE       PTSUNNY   75  69  81 SE10      29.88F
FLAG ISLAND      N/A     73  68  83 SE13      29.85F
INTL FALLS     CLOUDY    74  67  78 SE10G21   29.93F
6HR MIN TEMP:  74; 6HR MAX TEMP:  79;

WASKISH        PTSUNNY   75  70  83 SE10      29.89R
BIG FORK       MOSUNNY   75  68  78 SE7       29.99S
LONGVILLE      CLOUDY    79  72  78 SE5       29.92S
GRAND RAPIDS   MOSUNNY   76  72  87 SE6       29.97S
CRANE LAKE     CLOUDY    73  66  78 CALM      30.00R
ORR            PTSUNNY   72  64  78 SE5       29.96R
COOK           PTSUNNY   72  66  83 SE6       29.97F
WALKER         MOCLDY    76  73  90 SE7       29.91R
$$
MNZ012-019>021-037-140100-
   Northeast Minnesota

CITY           SKY/WX    TMP DP  RH WIND       PRES   REMARKS
DULUTH         PTSUNNY   72  65  78 E7        30.00S
6HR MIN TEMP:  69; 6HR MAX TEMP:  75; 6HR PCP: TRACE;

ELY            CLOUDY    72  63  73 SE10      30.01F
HIBBING        CLOUDY    72  67  84 SE6       29.98S
EVELETH        CLOUDY    74  68  82 E7        30.00S
DULUTH HARBOR  CLOUDY    66  63  88 NE15      29.98S
TWO HARBORS    MOSUNNY   72  57  60 NE7       29.99F
SILVER BAY       N/A     70  57  64 NE7       30.01F
GRAND MARAIS     N/A     66  57  72 E8        30.04R
G MARAIS ARPRT CLOUDY    68  57  68 CALM      30.08F
$$
MNZ029>031-032-039>041-046>048-054>057-064-140100-
   West Central Minnesota

CITY           SKY/WX    TMP DP  RH WIND       PRES   REMARKS
FERGUS FALLS   SUNNY     84  75  74 S13       29.83S HX  92
WHEATON        SUNNY     86  72  62 S10G16    29.84S HX  92
MORRIS         SUNNY     84  68  58 S12       29.87S
ALEXANDRIA     SUNNY     84  73  69 S14G23    29.90F HX  90
ELBOW LAKE     FAIR      84  74  72 S14G22    29.86S HX  90
WADENA         MOSUNNY   82  73  74 S8        29.89S
GLENWOOD       SUNNY     84  73  70 S13       29.90F HX  91
APPLETON       SUNNY     88  72  58 S8        29.86S HX  94
BENSON         SUNNY     84  73  70 S10       29.88F HX  91
ORTONVILLE     MOSUNNY   86  73  66 S10G18    29.85S HX  93
MADISON        SUNNY     88  73  62 S8        29.87S HX  96
WILLMAR        FAIR      86  72  62 S9G17     29.92F HX  92
$$
MNZ033>034-036-042>043-049>051-058-059-140100-
   Central Minnesota

CITY           SKY/WX    TMP DP  RH WIND       PRES   REMARKS
ST CLOUD       SUNNY     83  73  72 S9        29.92S
6HR MIN TEMP:  77; 6HR MAX TEMP:  85;

SAUK CENTRE    FAIR      83  74  75 S9        29.91S HX  90
PAYNESVILLE    SUNNY     84  73  69 S8        29.92S HX  90
AITKIN         MOSUNNY   79  70  73 S8        29.93S
PINE RIVER     PTSUNNY   81  73  78 SE9       29.94S
BRAINERD       MOSUNNY   84  72  67 SE8       29.92S
STAPLES        PTSUNNY   81  72  74 S7        29.90S
LONG PRAIRIE   FAIR      81  72  74 S15       29.91S
LITTLE FALLS   MOSUNNY   82  72  69 SE12      29.91F
CAMP RIPLEY    FAIR      83  74  73 S14       29.91F HX  90
LITCHFIELD     SUNNY     86  73  66 SE6       29.92R HX  93
BUFFALO        SUNNY     84  71  64 MISG      29.94S
MAPLE LAKE       N/A     85  75  73 S6        29.93S HX  94
HUTCHINSON     MOSUNNY   85  75  72 SE5       29.94R HX  94
$$
MNZ037-044-045-052-053-140100-
   East Central Minnesota

CITY           SKY/WX    TMP DP  RH WIND       PRES   REMARKS
PRINCETON      SUNNY     86  73  66 SE6       29.94R HX  93
MORA           SUNNY     82  70  65 SE5       29.97R
RUSH CITY      PTSUNNY   82  71  70 S6        29.96R
MOOSE LAKE     MOSUNNY   81  72  74 SE3       29.95S
HINCKLEY       MOCLDY    82  73  74 SE5       29.96S
CLOQUET        MOSUNNY   72  63  73 E6        29.99S
MCGREGOR       MOSUNNY   81  72  74 S6        29.95S
$$
MNZ071>073-080-081-089-090-097-098-140100-
   Southwest Minnesota

CITY           SKY/WX    TMP DP  RH WIND       PRES   REMARKS
MONTEVIDEO     SUNNY     84  70  61 SW8       29.88S
GRANITE FALLS  SUNNY     86  74  68 SE8       29.90R HX  94
CANBY          MOSUNNY   85  70  60 S13G18    29.89S HX  90
MARSHALL       SUNNY     85  73  67 S12       29.89S HX  91
REDWOOD FALLS  SUNNY     84  72  67 S13       29.89F
OLIVIA         SUNNY     84  72  65 SE9       29.90S
PIPESTONE        N/A     82  72  69 S12       29.93S
WINDOM         SUNNY     84  70  61 SE12      29.93S
WORTHINGTON    SUNNY     83  73  72 S10       29.95S
JACKSON        SUNNY     82  70  65 S8        29.96S
TRACY          SUNNY     85  70  62 S7        29.90F
SLAYTON        SUNNY     82  66  58 S10       29.94S
$$
MNZ065>067-074>077-082>085-091>093-140100-
   South Central Minnesota

CITY           SKY/WX    TMP DP  RH WIND       PRES   REMARKS
MANKATO        SUNNY     83  77  82 S12       29.95F HX  92
NEW ULM        SUNNY     82  72  69 SE9       29.92S
ST JAMES       LGT RAIN  82  72  69 SE7       29.93S
FAIRMONT       SUNNY     85  71  63 S13       29.95F HX  90
GLENCOE        SUNNY     84  75  72 SE8       29.93S HX  92
FARIBAULT      SUNNY     84  73  70 S9        29.98S HX  91
OWATONNA       SUNNY     82  72  69 SE12      29.98F
ALBERT LEA     SUNNY     81  72  74 SE10      30.00S
$$
MNZ078>079-086>088-094>096-140100-
   Southeast Minnesota

CITY           SKY/WX    TMP DP  RH WIND       PRES   REMARKS
ROCHESTER      CLOUDY    83  70  64 SE10      30.02S
6HR MIN TEMP:  82; 6HR MAX TEMP:  87;

RED WING       MOSUNNY   84  72  65 S9        29.96S
STANTON        SUNNY     83  72  68 S8        29.96F
DODGE CENTER   SUNNY     82  70  65 S9        30.02S
WINONA         MOSUNNY   82  72  69 SE9       30.00S
AUSTIN         SUNNY     82  72  69 S6        30.01F
PRESTON        MOSUNNY   81  70  70 S9        30.04S
$$
ABBREVIATIONS USED IN REMARKS
   TC - TEMPERATURES IN CELSIUS
  WCI - WIND CHILL INDEX
   HX - HEAT INDEX
  VSB - VISIBILITY
$$




USA.gov is the U.S. government's official web portal to all federal, state and local government web resources and services.